Location: T�chigga el Be�da
(16.4766°N, 9.3887°W)
Time: 12:21:09
(UTC+00:00)

COSMOS 2455 - Pass Details

Date: 27 February 2020
Orbit: 901 x 908 km, 67.2° (Epoch: 30 March)

Event Time Altitude Azimuth Distance (km) Brightness Sun altitude
Rises 20:26:03 0° 202° (SSW) 3,509 6.2 -25.2°
Reaches altitude 10° 20:28:33 10° 203° (SSW) 2,570 5.5 -25.8°
Maximum altitude 20:34:30 81° 290° (WNW) 915 2.8 -27.2°
Enters shadow 20:36:26 45° 11° (N) 1,201 3.3 -27.7°
